Presure
193 214 202 196 194 195 196 206 191 199 188 74 204 195 210 89 175 184 192 183 190 188 186 221 229 194 213 189 202 181 188 187 173 169 169 172 165 166 160 172 164 162 174
201 192 198 184 198 197 201 193 201 194 191 175 206 204 201 182 170 200 198 192 198 190 228 227 186 205 199 213 195 187 187 169 169 173 180 158 167 161 166 161 167 171 157
218 194 198 198 204 198 200 207 202 198 192 178 197 200 171 171 163 193 209 191 184 202 192 217 209 197 194 157 183 186 195 172 175 174 161 173 162 164 159 169 161 160 171
220 214 198 203 197 194 194 197 192 184 202 192 201 176 206 199 187 200 188 186 197 171 167 162 180 191 198 182 168 157 178 183 172 164 162 173 169 158 163 158 163 174 177
232 210 223 223 211 193 192 193 198 190 184 194 182 196 189 180 164 168 182 169 178 180 172 191 164 187 198 188 179 176 180 175 166 167 163 168 163 161 157 169 171 165 166
213 264 228 221 210 212 209 203 189 192 193 182 185 180 184 178 179 202 184 174 181 172 172 179 182 168 185 222 184 187 178 190 181 178 172 174 173 174 172 176 183 183 169
207 212 215 201 205 208 207 204 186 183 192 190 176 177 184 171 186 189 194 163 158 169 172 169 154 180 183 181 202 188 168 179 174 170 163 159 147 164 166 162 162 175 172
252 224 225 237 218 210 203 192 194 195 183 183 182 173 179 189 182 179 187 192 164 180 162 179 187 186 193 171 185 189 192 185 170 178 165 165 162 152 182 169 141 180 173
239 234 238 238 229 216 203 184 198 188 174 185 185 185 184 178 181 177 173 166 167 183 176 168 164 169 186 182 167 192 196 191 195 185 173 167 172 165 172 163 176 183 173
228 237 240 215 224 214 212 195 183 186 189 190 180 183 187 184 173 182 177 167 192 193 199 167 167 193 190 177 182 174 194 201 194 193 169 193 173 165 177 173 197 171 163
223 214 209 223 222 213 203 202 199 190 188 191 191 192 194 193 201 170 199 169 176 161 163 182 193 192 192 176 187 200 216 204 201 190 177 173 191 188 188 176 184 172 184
206 212 222 205 205 206 194 194 194 197 191 186 185 183 187 185 189 199 198 206 193 197 188 191 167 174 184 182 205 203 204 206 199 173 168 179 181 187 180 175 180 192 189
204 198 203 197 213 209 208 213 205 195 190 204 204 203 198 205 201 206 187 184 186 190 189 188 202 202 209 207 205 198 206 217 194 185 179 189 177 188 183 181 192 187 184
213 200 200 204 199 192 197 196 190 191 186 188 188 182 178 184 182 189 192 189 196 201 211 208 211 207 214 217 215 220 209 195 191 187 187 189 188 190 187 190 188 182 191
214 203 196 201 188 194 187 185 186 187 191 198 199 193 192 187 188 191 191 202 207 220 213 230 211 224 218 208 202 192 186 185 184 190 193 184 188 191 187 183 181 181 183
187 189 190 193 190 189 190 191 197 196 207 206 201 195 196 200 213 216 216 206 191 203 206 193 211 197 207 195 194 193 189 186 184 184 187 185 183 182 181 183 186 195 206
195 190 188 187 189 190 188 184 183 181 182 188 201 197 188 200 201 191 191 182 187 192 199 202 191 202 201 195 191 193 192 190 190 190 187 187 183 183 183 194 205 210 213
207 209 212 209 207 210 211 174 212 214 195 194 190 206 196 198 200 196 185 183 214 207 200 191 196 190 184 182 179 185 186 187 184 184 181 186 174 192 208 186 210 196 193
191 185 192 199 195 198 201 203 207 205 208 205 201 189 199 199 200 210 204 205 219 210 206 190 193 197 185 178 178 182 179 183 186 184 188 201 198 199 199 195 201 214 218
184 173 182 180 188 184 179 177 181 192 190 191 191 193 192 190 193 199 203 203 202 201 201 195 199 196 195 195 196 197 199 202 203 200 200 203 208 211 208 206 202 206 203
173 184 187 183 174 172 188 188 173 167 173 173 172 172 173 183 184 183 190 190 191 178 183 203 198 195 191 193 200 201 202 198 197 194 203 195 205 202 197 194 188 184 209
190 188 184 185 172 173 177 178 179 177 167 184 181 185 178 174 196 195 192 186 181 199 194 193 198 195 186 193 202 201 196 189 193 195 194 197 199 193 198 201 201 210 196
189 178 184 174 183 183 184 180 182 176 186 171 170 165 169 173 174 173 178 181 187 194 194 195 194 200 195 192 192 182 189 191 190 185 191 199 202 194 196 189 195 193 193
183 187 185 178 177 172 181 181 187 185 185 188 182 176 186 187 183 184 183 185 193 188 189 188 195 195 185 204 198 196 190 196 186 180 183 203 203 196 193 194 195 194 202
183 181 186 183 181 186 184 182 177 170 176 176 171 168 179 183 187 184 180 183 199 187 184 202 201 197 193 202 211 203 198 191 190 201 192 194 197 202 204 205 201 201 195
183 184 188 192 186 186 189 193 196 191 192 184 189 182 173 195 191 175 184 183 201 183 183 196 200 188 189 207 211 204 206 205 202 201 194 206 219 206 203 196 202 210 207
Wind_Speed
61 67 67 69 65 66 63 59 50 46 40 23 33 26 30 33 44 40 32 42 38 42 41 29 27 37 32 39 41 41 36 41 47 49 53 50 56 58 61 58 59 62 67
65 63 63 59 68 64 61 56 55 50 40 33 39 37 34 34 48 29 31 37 35 39 20 27 36 27 31 35 39 38 37 45 46 49 47 56 54 59 61 60 63 64 56
65 61 65 66 70 66 61 65 57 52 41 37 33 39 39 42 60 29 23 28 31 19 22 12 24 24 29 52 32 35 40 46 46 49 50 53 61 60 61 64 59 61 66
61 64 62 71 68 62 56 57 49 41 48 39 42 36 39 29 21 26 27 31 27 42 47 57 34 38 31 36 43 50 40 46 47 50 54 54 60 61 62 59 63 69 66
49 57 59 67 74 65 60 53 58 46 38 38 32 35 30 31 50 44 36 43 41 34 42 27 53 21 33 36 43 44 44 49 50 55 58 58 60 61 59 66 67 61 67
43 35 55 61 64 68 68 66 50 52 48 33 36 37 33 37 38 32 31 37 34 41 41 37 29 44 22 38 39 49 47 49 56 57 58 62 63 65 61 66 71 64 64
41 48 54 52 57 62 64 63 49 43 52 46 43 43 43 45 38 36 35 56 60 52 47 49 55 33 31 30 28 44 48 50 53 54 55 55 53 56 57 58 61 63 65
38 45 46 50 58 62 60 53 57 58 43 47 47 45 45 44 43 42 43 43 55 44 54 43 31 35 32 45 29 36 47 56 54 59 58 58 56 50 59 62 47 65 66
28 35 40 45 49 57 61 52 59 52 44 50 52 53 55 47 47 50 48 56 56 43 49 49 59 52 35 38 54 41 49 54 60 65 62 62 65 62 65 60 66 69 67
25 28 38 37 40 46 53 60 50 51 56 58 58 59 54 54 51 49 51 57 41 41 42 62 59 43 44 49 42 52 47 54 56 59 56 62 59 62 66 66 68 65 57
22 21 25 33 35 42 48 52 49 57 58 55 58 63 58 55 52 56 49 57 54 59 62 50 44 48 47 58 52 52 49 53 57 59 62 63 64 67 68 67 70 69 74
23 22 32 28 33 39 44 46 48 48 47 49 47 43 49 46 50 53 52 52 49 49 53 51 62 60 56 53 55 54 53 55 57 57 60 62 61 64 66 67 69 69 69
27 26 25 27 38 38 43 49 51 50 48 50 50 52 49 56 51 51 47 49 48 50 51 56 59 58 60 58 55 53 56 57 54 59 60 60 63 66 68 68 68 68 68
30 28 27 28 30 32 34 34 36 38 40 41 42 43 45 47 45 50 54 52 60 61 63 61 60 59 57 58 57 58 48 49 54 56 61 63 64 64 66 68 69 67 74
30 29 31 35 34 33 39 38 36 38 42 45 46 46 48 47 50 55 57 66 66 57 55 47 46 45 42 44 46 49 52 53 57 60 60 62 65 67 68 68 69 70 72
24 25 24 27 27 28 30 33 39 43 46 50 52 51 56 61 58 55 54 50 47 50 48 51 48 51 47 49 50 49 52 56 58 61 63 64 64 67 71 75 77 78 77
34 34 34 33 36 40 40 37 36 36 36 37 41 40 44 44 47 45 45 44 47 49 50 53 51 49 49 52 55 55 57 61 64 67 70 71 72 75 77 83 81 75 72
25 28 32 38 42 41 42 36 37 39 40 40 40 44 45 46 48 49 48 48 59 55 53 56 58 55 52 55 56 58 62 66 67 70 71 75 69 82 75 79 72 76 76
30 34 31 29 31 31 32 32 33 35 36 38 39 42 43 45 47 50 48 47 50 53 52 52 58 58 58 59 60 65 66 70 73 74 78 81 82 81 77 76 75 66 57
39 42 37 37 34 35 38 41 41 33 34 34 33 35 39 43 44 43 43 47 49 50 52 55 59 63 64 69 67 70 71 73 73 75 77 78 78 74 72 70 71 67 66
44 41 40 42 44 45 41 39 41 42 45 47 50 50 51 45 49 51 47 48 52 61 59 53 57 63 67 69 69 70 68 71 73 77 74 76 74 76 73 74 75 80 71
46 47 47 45 52 52 53 53 52 54 53 51 53 51 54 56 50 53 54 62 66 52 55 56 56 58 67 67 69 70 71 74 73 82 81 83 81 81 79 77 78 75 85
52 51 52 52 52 54 56 56 57 60 57 59 61 62 62 66 67 68 67 66 65 63 60 60 60 60 64 66 70 77 77 76 75 81 83 87 85 86 86 84 85 85 88
57 57 61 60 58 57 61 60 60 61 62 61 63 64 64 64 67 67 69 71 70 69 68 69 68 66 70 70 74 75 79 79 85 86 87 87 88 89 91 93 91 91 91
63 63 62 63 65 64 66 69 71 68 70 69 68 69 72 71 72 73 75 76 79 76 74 76 77 75 75 74 75 79 82 84 86 86 88 91 89 92 97 99 98 97 97
68 68 67 67 65 67 70 71 71 71 71 75 74 76 77 76 75 78 79 79 83 81 81 81 84 82 82 85 83 84 87 90 88 89 91 96 94 91 96 95 97 100 101
Wind_Direction
247 229 239 250 253 254 263 263 270 273 271 269 262 283 283 286 257 266 277 270 275 272 273 261 263 269 245 254 241 263 253 247 256 266 268 269 272 278 285 283 291 293 297
240 248 246 255 252 258 258 265 264 268 271 273 278 276 253 270 264 284 266 267 264 275 269 264 267 250 251 243 247 255 251 264 267 263 264 279 270 278 280 286 290 291 299
231 243 245 252 247 253 257 257 263 265 268 259 276 277 251 258 264 276 247 253 260 249 261 269 243 245 251 279 253 253 253 256 260 260 271 265 271 272 282 283 292 295 292
232 231 242 241 252 259 259 260 261 256 263 272 278 247 273 278 274 265 254 250 251 266 272 277 274 269 245 250 271 280 254 253 256 260 266 261 264 278 277 291 289 287 292
229 234 230 236 241 254 259 260 261 260 255 266 253 269 263 243 260 263 251 261 259 254 260 269 277 272 268 250 257 259 251 252 254 255 264 262 266 276 279 282 284 293 294
236 219 224 229 240 245 248 254 257 263 264 251 261 247 257 243 249 280 240 251 249 252 257 260 266 275 275 259 252 255 252 261 253 253 259 262 266 268 277 284 283 288 290
232 229 222 237 238 239 244 248 255 256 263 266 252 255 271 250 252 265 269 257 269 254 253 263 279 263 272 266 277 255 263 260 254 266 268 277 282 280 281 283 287 283 288
203 220 223 217 225 236 243 249 251 255 259 259 264 257 263 268 245 246 267 269 257 259 265 261 271 267 278 271 281 270 256 253 258 255 265 269 276 282 280 281 286 285 289
215 216 225 218 217 228 238 247 249 255 254 263 265 268 266 258 261 260 245 257 255 259 258 267 267 268 274 269 273 279 268 261 259 253 261 269 269 277 275 283 284 287 289
223 215 217 216 215 222 229 241 253 257 261 263 264 266 265 264 248 261 256 258 278 274 284 263 263 279 276 265 271 268 277 265 260 257 268 266 273 276 277 283 282 287 294
217 227 229 209 209 217 227 238 241 246 252 253 256 262 266 268 269 262 281 256 258 267 265 267 280 275 278 269 279 277 270 263 260 259 262 267 269 275 273 282 280 288 287
218 214 202 218 214 212 228 233 238 244 249 261 268 269 269 267 271 276 278 280 277 283 276 278 268 264 274 272 277 269 266 262 259 268 270 270 273 274 276 282 283 288 290
221 219 221 226 214 224 226 230 237 249 256 256 261 262 267 268 270 276 272 270 275 277 278 277 279 277 276 273 270 268 267 265 263 264 272 270 275 273 279 283 288 290 294
223 223 226 223 227 234 240 240 246 248 253 256 259 258 260 265 267 274 276 277 280 278 274 272 269 267 265 268 270 271 274 266 265 268 269 272 277 282 284 288 292 296 296
232 232 226 222 230 229 237 238 246 254 263 267 266 269 270 269 274 275 277 273 274 270 270 259 263 258 260 261 262 265 269 269 271 274 279 280 284 286 290 293 293 293 295
249 251 249 257 258 259 263 267 269 270 262 263 264 267 268 266 261 260 262 268 277 275 268 274 267 276 266 270 272 274 276 277 279 280 282 285 288 291 292 290 292 293 292
222 230 238 244 247 250 254 256 258 260 262 269 263 263 261 267 265 271 272 275 278 277 275 275 278 275 274 275 277 277 278 281 283 286 288 290 290 288 289 290 289 291 292
223 224 227 233 238 243 247 253 250 253 255 257 258 265 263 267 268 269 270 273 276 278 280 282 284 284 284 283 283 287 287 285 286 285 286 285 287 286 285 289 288 290 291
231 236 236 236 243 247 249 250 250 251 249 251 254 262 261 264 267 265 267 270 264 268 270 276 276 274 277 281 281 280 281 281 280 282 282 280 281 282 284 287 288 285 282
236 259 246 251 240 250 256 259 261 257 260 264 268 272 273 274 276 279 280 278 277 277 276 275 274 274 274 273 273 273 273 275 277 279 280 281 281 283 284 285 287 287 287
258 240 236 242 253 259 246 249 264 264 267 266 270 272 273 272 272 274 276 278 276 278 276 271 271 274 278 278 279 279 279 279 280 280 279 284 283 284 287 286 290 290 285
243 241 241 242 257 258 255 256 256 259 270 258 262 261 267 273 280 277 275 273 277 276 274 276 274 273 277 280 282 283 283 283 285 286 287 286 285 287 287 286 286 284 287
249 256 251 259 250 251 253 258 260 263 262 267 270 275 275 274 274 275 275 276 279 279 280 280 279 278 276 276 277 281 282 281 281 283 285 285 285 286 287 289 288 288 289
257 256 254 259 261 265 261 262 264 263 263 266 265 270 272 271 271 273 275 276 280 279 279 279 280 275 276 275 274 273 275 276 280 283 284 284 284 284 285 286 286 286 283
258 260 261 260 262 263 266 266 266 268 267 267 270 274 272 275 278 279 280 282 283 282 283 282 284 281 281 280 274 273 273 275 277 277 278 279 280 282 282 281 282 283 285
259 260 262 263 264 266 268 269 272 269 271 266 269 267 272 277 276 276 279 280 284 280 281 285 285 283 284 285 280 278 278 278 277 275 276 279 279 274 276 279 280 279 279